NS8S Weather Reports


time (UTC)temp
C
wind
direction
speed
KPH
gust
KPH
rain 1hr
cm
rain 24hr
cm
rain mn
cm
humidity
%
barometer
mb
20260509004607 13 156 0.0 6.4 0.00 0.00 0.00 30 1006.3
20260509003057 13 186 0.0 6.4 0.00 0.00 0.00 30 1006.4
20260509001554 14 193 3.2 16.1 0.00 0.00 0.00 28 1006.6
20260509000010 14 175 6.4 16.1 0.00 0.00 0.00 28 1006.8
20260508234506 14 215 3.2 19.3 0.00 0.00 0.00 30 1006.8
20260508233100 14 193 4.8 16.1 0.00 0.00 0.00 29 1007.1
20260508233004 14 168 6.4 16.1 0.00 0.00 0.00 28 1007.0
20260508231608 14 181 4.8 20.9 0.00 0.00 0.00 30 1007.2
20260508231503 14 217 4.8 20.9 0.00 0.00 0.00 30 1007.2
20260508230056 14 137 6.4 27.4 0.00 0.00 0.00 29 1007.3
20260508224544 14 186 9.7 16.1 0.00 0.00 0.00 30 1007.5
20260508223100 14 221 8.0 16.1 0.00 0.00 0.00 31 1007.5
20260508221559 14 216 6.4 24.1 0.00 0.00 0.00 33 1007.6
20260508220051 14 225 9.7 19.3 0.00 0.00 0.00 31 1007.8
20260508214550 15 231 6.4 19.3 0.00 0.00 0.00 29 1007.9
20260508213044 14 184 4.8 29.0 0.00 0.00 0.00 35 1008.0
20260508211541 13 199 8.0 20.9 0.00 0.00 0.00 38 1008.2
20260508210039 13 191 9.7 25.7 0.00 0.00 0.00 38 1008.3
20260508204536 13 176 8.0 25.7 0.00 0.00 0.00 42 1008.6
20260508203040 13 198 11.3 25.7 0.00 0.00 0.00 40 1008.8
20260508201536 13 200 9.7 24.1 0.00 0.00 0.00 41 1009.1
20260508200030 13 187 8.0 22.5 0.00 0.00 0.00 45 1009.1
20260508194542 13 216 11.3 22.5 0.00 0.00 0.00 44 1009.2
20260508193037 13 199 12.9 20.9 0.00 0.00 0.00 44 1009.3
20260508191539 13 189 8.0 22.5 0.00 0.00 0.00 43 1009.5
20260508190036 14 190 8.0 20.9 0.00 0.00 0.00 40 1009.6
20260508184530 13 201 6.4 20.9 0.00 0.00 0.00 38 1009.8
20260508183034 13 189 4.8 20.9 0.00 0.00 0.00 38 1009.9
20260508181516 13 225 9.7 24.1 0.00 0.00 0.00 37 1010.0
20260508180006 13 183 11.3 27.4 0.00 0.00 0.00 39 1010.2
20260508174503 13 201 11.3 24.1 0.00 0.00 0.00 40 1010.5
20260508173100 12 185 9.7 25.7 0.00 0.00 0.00 42 1010.7
20260508171552 12 192 11.3 25.7 0.00 0.00 0.00 46 1010.9
20260508170010 12 216 6.4 24.1 0.00 0.00 0.00 48 1011.1
20260508164506 12 200 11.3 20.9 0.00 0.00 0.00 49 1011.3
20260508163057 12 207 9.7 22.5 0.00 0.00 0.00 53 1011.4
20260508161555 12 211 11.3 25.7 0.00 0.00 0.00 58 1011.3
20260508160052 11 220 6.4 19.3 0.00 0.00 0.00 61 1011.4
20260508154546 11 218 9.7 25.7 0.00 0.00 0.00 64 1011.4
20260508153038 10 179 11.3 22.5 0.00 0.00 0.00 65 1011.5
20260508151531 10 217 8.0 22.5 0.00 0.00 0.00 67 1011.5
20260508150030 11 218 9.7 22.5 0.00 0.00 0.00 63 1011.4
20260508144513 11 225 9.7 16.1 0.00 0.00 0.00 60 1011.5
20260508143009 11 195 3.2 17.7 0.00 0.00 0.00 57 1011.4
20260508141616 11 247 8.0 17.7 0.00 0.00 0.00 58 1011.5
20260508140054 10 199 8.0 19.3 0.00 0.00 0.00 62 1011.5
20260508134617 10 211 8.0 16.1 0.00 0.00 0.00 65 1011.6
20260508133050 9 239 4.8 11.3 0.00 0.00 0.00 67 1011.8
20260508131504 8 191 3.2 9.7 0.00 0.00 0.00 73 1011.8